Location: Jastrz?bniki
(50.3667°N, 20.3833°E)
Time: 10:28:51
(UTC+00:00)

Cosmos 1408 Rocket - Pass Details

Date: 05 August 2024
Orbit: 598 x 625 km, 82.6° (Epoch: 07 September)

Event Time Altitude Azimuth Distance (km) Brightness Sun altitude
Exits shadow 00:06:22 55° 213° (SSW) 723 3.5 -20.4°
Maximum altitude 00:07:12 75° 281° (W) 625 3.4 -20.3°
Drops below altitude 10° 00:11:31 10° 7° (N) 1,950 7.2 -20.1°
Sets 00:13:44 0° 9° (N) 2,857 8.4 -19.9°
